Flag for China Weather past 2 weeks in Taiyuan, Shanxi, China

Now
25 °F

Clear.


Feels Like: 20 °F
Forecast: 16 / 46 °F
Wind: 3 mph from East

Location: Taiyuan Airport

Current Time: Mar 2, 2015 at 3:41:02 AM

Latest Report: Mar 2, 2015 at 3:00 AM


Visibility: 4 mi

Pressure: 29.98 "Hg

Humidity: 69%

Dew point: 16 °F

Location of TaiyuanLocation

Historic Weather in Taiyuan — Graph

°F

Taiyuan temperature yesterday

Maximum temperature yesterday: 46 °F (at 3:30 PM)
Minimum temperature yesterday: 18 °F (at 4:30 AM)
Average temperature yesterday: 33 °F

Past Weeks' High & Low Weather Summary

 TemperatureHumidityPressure
High57 °F (Feb 17, 3:00 PM)93% (Feb 19, 11:00 AM)30.36 "Hg (Feb 19, 11:00 AM)
Low16 °F (Feb 22, 5:30 AM)5% (Feb 17, 4:30 PM)29.83 "Hg (Feb 24, 2:30 PM)
Average33 °F44%30.11 "Hg
* Reported Feb 15 2:00 AM — Mar 2 2:30 AM, Taiyuan, Weather by CustomWeather, © 2015

Note: Actual official high and low records may vary slightly from our data, if they occured in-between our weather recording intervals... More about our weather records

Advertising

Taiyuan weather history for previous 24 hours

 ConditionsComfort  
Time TempWeatherWind HumidityBarometerVisibility
2:30 AM
Mon, Mar 2
25 °FClear.3 mph74%29.98 "Hg4 mi
2:00 AM27 °FClear.3 mph64%30.01 "Hg4 mi
1:30 AM27 °FClear.3 mph69%30.01 "Hg4 mi
1:00 AM28 °FClear.3 mph64%30.01 "Hg4 mi
12:30 AM28 °FClear.6 mph59%30.04 "Hg4 mi
12:00 AM28 °FClear.3 mph59%30.04 "Hg4 mi
11:30 PM
Sun, Mar 1
30 °FClear.3 mph55%30.04 "Hg4 mi
11:00 PM30 °FClear.1 mph55%30.04 "Hg4 mi
10:30 PM34 °FClear.3 mph44%30.04 "Hg4 mi
10:00 PM36 °FClear.3 mph41%30.04 "Hg5 mi
9:30 PM37 °FClear.3 mph35%30.04 "Hg10 mi
9:00 PM39 °FClear.6 mph33%30.04 "Hg10 mi
8:30 PM39 °FClear.3 mph30%30.04 "Hg10 mi
8:00 PM41 °FClear.8 mph28%30.04 "Hg10 mi
7:30 PM41 °FClear.3 mph26%30.04 "Hg10 mi
7:00 PM43 °FPassing clouds.3 mph24%30.04 "HgN/A
6:30 PM45 °FPassing clouds.6 mph19%30.04 "HgN/A
6:00 PM46 °FSunny.3 mph18%30.04 "Hg10 mi
5:30 PM46 °FPassing clouds.6 mph17%30.04 "HgN/A
5:00 PM46 °FSunny.8 mph15%30.04 "Hg10 mi
4:30 PM46 °FPassing clouds.8 mph15%30.04 "HgN/A
4:00 PM46 °FSunny.10 mph14%30.07 "Hg10 mi
3:30 PM46 °FPassing clouds.8 mph14%30.07 "HgN/A
3:00 PM45 °FPassing clouds.10 mph15%30.07 "HgN/A
2:30 PM45 °FPassing clouds.10 mph14%30.09 "HgN/A
2:00 PM45 °FPassing clouds.8 mph15%30.12 "HgN/A
1:30 PM45 °FPassing clouds.8 mph16%30.12 "HgN/A
1:00 PM43 °FPassing clouds.6 mph16%30.15 "HgN/A
12:30 PM41 °FPassing clouds.6 mph20%30.15 "HgN/A
12:00 PM41 °FSunny.1 mph22%30.18 "Hg10 mi
11:30 AM39 °FPassing clouds.6 mph24%30.21 "HgN/A
11:00 AM37 °FClear.3 mph33%30.24 "Hg5 mi
10:30 AM34 °FClear.1 mph41%30.24 "Hg4 mi
10:00 AM32 °FClear.1 mph51%30.27 "Hg5 mi
9:30 AM28 °FClear.3 mph59%30.27 "Hg5 mi
9:00 AM28 °FClear.1 mph59%30.27 "Hg5 mi
8:30 AM25 °FClear.1 mph63%30.27 "Hg5 mi
8:00 AM21 °FClear.3 mph74%30.27 "Hg4 mi
7:30 AM18 °FClear.1 mph79%30.24 "Hg4 mi
7:00 AM18 °FClear.1 mph79%30.24 "Hg4 mi
6:30 AM18 °FClear.3 mph79%30.24 "Hg10 mi
6:00 AM18 °FClear.3 mph73%30.24 "Hg10 mi
5:30 AM18 °FClear.3 mph73%30.24 "Hg10 mi
5:00 AM18 °FClear.1 mph79%30.24 "Hg10 mi
4:30 AM18 °FClear.1 mph79%30.27 "Hg10 mi
4:00 AM19 °FClear.1 mph73%30.27 "Hg10 mi
3:30 AM21 °FClear.1 mph74%30.27 "Hg10 mi
3:00 AM19 °FClear.1 mph73%30.27 "Hg10 mi
Weather by CustomWeather, © 2015

See weather overviewHow to use our weather pages